Station History

Weather Underground - logo

Station Historical Data
Daily Summary for February 22, 2018 Units:  Metric    English   Both
« Previous Day
Next Day »
Daily Weekly Monthly Yearly Custom
  High: Low: Average:
Temperature: 14.9 °C -1.1 °C 6.8 °C
Dew Point: 4.5 °C -3.3 °C -0.8 °C
Humidity: 89 % 31 % 63 %
Wind Speed: 14.8 km/h 0 km/h 2.3 km/h
Wind Gust: 14.8 km/h - -
Wind:- - WSW
Pressure: 1024.9 hPa 1020.5 hPa -
Precipitation: 0.51 mm    
Historical Graphs
 
 
Tabular Data for February 22, 2018
Time Temperature Dew Point Pressure Wind Wind Speed Wind Gust Humidity Rainfall Rate (Hourly)
00:04 1.9 °C -2.1 °C 1023.6 hPa ESE 1.9 km/h 1.9 km/h 75 % 0 mm
00:09 1.4 °C -2.3 °C 1023.6 hPa Calm     76 % 0 mm
00:14 1.3 °C -2.3 °C 1023.6 hPa Calm     77 % 0 mm
00:19 1.2 °C -2 °C 1023.6 hPa Calm     79 % 0 mm
00:24 1.1 °C -2 °C 1023.6 hPa Calm     80 % 0 mm
00:29 0.8 °C -2.1 °C 1023.6 hPa Calm     81 % 0 mm
00:34 0.7 °C -1.9 °C 1023.6 hPa Calm     83 % 0 mm
00:39 0.6 °C -2 °C 1023.6 hPa Calm     83 % 0 mm
00:44 0.4 °C -2.1 °C 1023.6 hPa Calm     83 % 0 mm
00:49 0.4 °C -2 °C 1023.6 hPa Calm     84 % 0 mm
00:54 0.4 °C -2 °C 1023.6 hPa Calm     84 % 0 mm
00:59 0.4 °C -2 °C 1023.6 hPa Calm     84 % 0 mm
01:04 0.6 °C -2 °C 1023.6 hPa Calm     83 % 0 mm
01:09 0.6 °C -2.2 °C 1023.6 hPa Calm     82 % 0 mm
01:14 0.4 °C -2.3 °C 1023.6 hPa Calm     82 % 0 mm
01:19 0.4 °C -2.3 °C 1023.6 hPa Calm     82 % 0 mm
01:24 0.3 °C -2.6 °C 1023.2 hPa Calm     81 % 0 mm
01:30 0.3 °C -2.6 °C 1023.6 hPa Calm     81 % 0 mm
01:35 0.2 °C -2.7 °C 1023.6 hPa Calm     81 % 0 mm
01:40 0.2 °C -2.3 °C 1023.6 hPa Calm     83 % 0 mm
01:45 0.2 °C -2.4 °C 1023.6 hPa Calm     83 % 0 mm
01:50 0.1 °C -2.4 °C 1023.6 hPa Calm     83 % 0 mm
01:55 0 °C -2.4 °C 1023.6 hPa Calm     84 % 0 mm
02:00 -0.1 °C -2.3 °C 1023.6 hPa Calm     85 % 0 mm
02:05 -0.2 °C -2.3 °C 1023.6 hPa Calm     86 % 0 mm
02:10 -0.2 °C -2.3 °C 1023.6 hPa Calm     86 % 0 mm
02:15 -0.3 °C -2.2 °C 1023.6 hPa Calm     87 % 0 mm
02:20 -0.3 °C -2.2 °C 1023.2 hPa Calm     87 % 0 mm
02:25 -0.3 °C -2.2 °C 1023.6 hPa Calm     87 % 0 mm
02:30 -0.3 °C -2.4 °C 1023.2 hPa ESE 1.9 km/h   86 % 0 mm
02:35 -0.4 °C -2.5 °C 1023.2 hPa Calm     86 % 0 mm
02:40 -0.5 °C -2.6 °C 1023.2 hPa Calm     86 % 0 mm
02:45 -0.6 °C -2.6 °C 1023.2 hPa Calm     86 % 0 mm
02:50 -0.5 °C -2.9 °C 1022.9 hPa Calm     84 % 0 mm
02:55 -0.4 °C -3.1 °C 1022.9 hPa Calm     82 % 0 mm
03:00 -0.6 °C -3.3 °C 1022.9 hPa Calm     82 % 0 mm
03:05 -0.7 °C -3.2 °C 1022.9 hPa Calm     83 % 0 mm
03:10 -0.8 °C -3.3 °C 1022.9 hPa Calm     83 % 0 mm
03:15 -0.9 °C -3.3 °C 1023.2 hPa Calm     84 % 0 mm
03:20 -0.9 °C -3.2 °C 1023.2 hPa Calm     85 % 0 mm
03:25 -1 °C -3.1 °C 1023.2 hPa Calm     86 % 0 mm
03:30 -1.1 °C -3.1 °C 1022.9 hPa Calm     86 % 0 mm
03:35 -1.1 °C -3.1 °C 1023.2 hPa Calm     86 % 0 mm
03:40 -1.1 °C -3.2 °C 1022.9 hPa Calm     86 % 0 mm
03:45 -1.1 °C -3.2 °C 1022.9 hPa Calm     86 % 0 mm
03:50 -1 °C -3.1 °C 1022.9 hPa Calm     86 % 0 mm
03:55 -0.9 °C -2.9 °C 1023.2 hPa Calm     86 % 0 mm
04:00 -0.9 °C -3.1 °C 1023.2 hPa Calm     85 % 0 mm
04:05 -0.9 °C -3.2 °C 1023.2 hPa Calm     85 % 0 mm
04:10 -1.1 °C -3.3 °C 1023.2 hPa Calm     85 % 0 mm
04:15 -1 °C -3.1 °C 1023.2 hPa Calm     86 % 0 mm
04:20 -0.8 °C -3.1 °C 1023.2 hPa Calm     85 % 0 mm
04:25 -0.8 °C -3 °C 1023.2 hPa Calm     85 % 0 mm
04:30 -0.8 °C -3.2 °C 1023.2 hPa Calm     84 % 0 mm
04:35 -0.8 °C -3 °C 1023.2 hPa Calm     85 % 0 mm
04:40 -0.7 °C -3.1 °C 1023.2 hPa Calm     84 % 0 mm
04:45 -0.8 °C -3.2 °C 1023.2 hPa Calm     84 % 0 mm
04:50 -0.8 °C -3.2 °C 1023.2 hPa Calm     84 % 0 mm
04:55 -0.8 °C -3.2 °C 1023.2 hPa Calm     84 % 0 mm
05:00 -0.8 °C -3.2 °C 1023.2 hPa Calm     84 % 0 mm
05:05 -0.7 °C -3.1 °C 1023.2 hPa Calm     84 % 0 mm
05:10 -0.8 °C -3.2 °C 1023.2 hPa Calm     84 % 0 mm
05:15 -0.8 °C -2.9 °C 1023.2 hPa Calm     86 % 0 mm
05:21 -0.9 °C -2.9 °C 1023.2 hPa Calm     86 % 0 mm
05:26 -0.9 °C -3 °C 1023.2 hPa Calm     86 % 0 mm
05:31 -1 °C -3.1 °C 1023.2 hPa Calm     86 % 0 mm
05:36 -1.1 °C -3.2 °C 1023.2 hPa Calm     86 % 0 mm
05:41 -1.1 °C -3.2 °C 1023.2 hPa Calm     86 % 0 mm
05:46 -0.9 °C -2.8 °C 1023.6 hPa Calm     87 % 0 mm
05:51 -0.8 °C -2.8 °C 1023.2 hPa Calm     86 % 0 mm
05:56 -0.6 °C -2.8 °C 1023.6 hPa Calm     85 % 0 mm
06:01 -0.6 °C -2.9 °C 1023.6 hPa Calm     84 % 0 mm
06:06 -0.6 °C -3.1 °C 1023.6 hPa Calm     83 % 0 mm
06:11 -0.4 °C -3 °C 1023.9 hPa Calm     83 % 0 mm
06:16 -0.3 °C -2.9 °C 1023.9 hPa Calm     83 % 0 mm
06:21 -0.3 °C -2.9 °C 1023.9 hPa Calm     83 % 0 mm
06:26 -0.6 °C -2.9 °C 1023.9 hPa Calm     84 % 0 mm
06:31 -0.8 °C -3 °C 1023.9 hPa Calm     85 % 0 mm
06:36 -0.9 °C -2.9 °C 1024.3 hPa Calm     86 % 0 mm
06:41 -0.8 °C -2.9 °C 1024.3 hPa Calm     86 % 0 mm
06:46 -0.8 °C -2.9 °C 1024.3 hPa Calm     86 % 0 mm
06:51 -0.7 °C -2.8 °C 1024.3 hPa Calm     86 % 0 mm
06:56 -0.7 °C -2.7 °C 1024.3 hPa Calm     86 % 0 mm
07:01 -0.6 °C -2.6 °C 1024.3 hPa Calm     86 % 0 mm
07:06 -0.3 °C -2.5 °C 1024.3 hPa Calm     85 % 0 mm
07:11 -0.2 °C -2.6 °C 1024.3 hPa Calm     84 % 0 mm
07:16 0 °C -2.6 °C 1024.3 hPa Calm     83 % 0 mm
07:21 0.2 °C -2.4 °C 1024.3 hPa Calm     83 % 0 mm
07:26 0.3 °C -2.2 °C 1024.3 hPa Calm     83 % 0 mm
07:31 0.5 °C -1.7 °C 1024.6 hPa Calm     85 % 0 mm
07:36 0.5 °C -1.7 °C 1024.6 hPa Calm     85 % 0 mm
07:41 0.6 °C -1.5 °C 1024.3 hPa Calm     86 % 0 mm
07:46 0.7 °C -1.4 °C 1024.6 hPa Calm     86 % 0 mm
07:51 1.2 °C -0.7 °C 1024.6 hPa Calm     87 % 0 mm
07:56 1.9 °C -0.7 °C 1024.6 hPa Calm     83 % 0 mm
08:01 2.3 °C -0.8 °C 1024.6 hPa Calm     80 % 0 mm
08:06 2.5 °C -0.9 °C 1024.6 hPa Calm     78 % 0 mm
08:11 2.7 °C -0.6 °C 1024.6 hPa Calm     79 % 0 mm
08:16 3.2 °C -0.1 °C 1024.6 hPa South 1.9 km/h 1.9 km/h 79 % 0 mm
08:21 3.8 °C 0.2 °C 1024.6 hPa ESE 1.9 km/h 1.9 km/h 77 % 0 mm
08:26 4.1 °C -0.2 °C 1024.6 hPa SE 1.9 km/h   74 % 0 mm
08:31 4.4 °C -0.6 °C 1024.6 hPa SE 1.9 km/h   70 % 0 mm
08:36 5 °C -0.4 °C 1024.6 hPa East 3.7 km/h 3.7 km/h 68 % 0 mm
08:41 5.6 °C -0.4 °C 1024.6 hPa SSE 5.6 km/h 5.6 km/h 65 % 0 mm
08:46 6.1 °C -0.4 °C 1024.6 hPa Calm     63 % 0 mm
08:51 6.6 °C -0.9 °C 1024.6 hPa South 5.6 km/h 5.6 km/h 59 % 0 mm
08:56 6.8 °C -1.1 °C 1024.6 hPa East 4.8 km/h 4.8 km/h 57 % 0 mm
09:01 7.4 °C -1.3 °C 1024.6 hPa ESE 5.6 km/h 5.6 km/h 54 % 0 mm
09:06 7.9 °C -1.1 °C 1024.6 hPa SE 5.6 km/h 5.6 km/h 53 % 0 mm
09:11 8.3 °C -1.5 °C 1024.3 hPa South 3.7 km/h 3.7 km/h 50 % 0 mm
09:16 8.7 °C -1.7 °C 1024.3 hPa SSE 5.6 km/h 5.6 km/h 48 % 0 mm
09:21 9 °C -2.3 °C 1024.3 hPa SSE 5.6 km/h 5.6 km/h 45 % 0 mm
09:26 9.3 °C -2.3 °C 1024.3 hPa SE 5.6 km/h 5.6 km/h 44 % 0 mm
09:31 9.6 °C -2.1 °C 1024.3 hPa South 3.7 km/h 3.7 km/h 44 % 0 mm
09:36 10 °C -2 °C 1024.3 hPa SSW 6.4 km/h 6.4 km/h 43 % 0 mm
09:41 10.3 °C -2.4 °C 1024.6 hPa ENE 3.7 km/h 3.7 km/h 41 % 0 mm
09:46 10.7 °C -2.4 °C 1024.6 hPa SE 1.9 km/h 1.9 km/h 40 % 0 mm
09:51 11 °C -2.1 °C 1024.6 hPa Calm   0.2 km/h 40 % 0 mm
09:56 11.1 °C -2.4 °C 1024.6 hPa South 1.9 km/h   39 % 0 mm
10:01 11.2 °C -1.9 °C 1024.6 hPa South 1.9 km/h 1.9 km/h 40 % 0 mm
10:06 11.3 °C -2.5 °C 1024.6 hPa ESE 1.9 km/h 1.9 km/h 38 % 0 mm
10:11 11.4 °C -2.1 °C 1024.9 hPa SSE 5.6 km/h   39 % 0 mm
10:16 11.4 °C -2.1 °C 1024.9 hPa SSE 1.9 km/h 1.9 km/h 39 % 0 mm
10:21 11.4 °C -2.4 °C 1024.9 hPa NNW 3.2 km/h 3.2 km/h 38 % 0 mm
10:26 11.2 °C -2.9 °C 1024.9 hPa SE 4.8 km/h 4.8 km/h 37 % 0 mm
10:31 11.1 °C -2.7 °C 1024.9 hPa SSE 4.8 km/h 4.8 km/h 38 % 0 mm
10:36 11.2 °C -2.3 °C 1024.9 hPa SSW 1.9 km/h   39 % 0 mm
10:41 11.3 °C -2.6 °C 1024.9 hPa SSE 3.2 km/h 3.2 km/h 38 % 0 mm
10:46 11.6 °C -2.2 °C 1024.9 hPa North 4.8 km/h 4.8 km/h 38 % 0 mm
10:51 12 °C -2.3 °C 1024.9 hPa North 1.9 km/h 1.9 km/h 37 % 0 mm
10:56 11.9 °C -1.6 °C 1024.9 hPa SE 5.6 km/h 5.6 km/h 39 % 0 mm
11:01 12.4 °C -1.9 °C 1024.9 hPa SSW 7.4 km/h 7.4 km/h 37 % 0 mm
11:06 12.7 °C -1.3 °C 1024.9 hPa SW 1.9 km/h 1.9 km/h 38 % 0 mm
11:11 12.4 °C -1.9 °C 1024.9 hPa NW 3.7 km/h 3.7 km/h 37 % 0 mm
11:16 12.2 °C -1.1 °C 1024.6 hPa West 1.9 km/h 1.9 km/h 40 % 0 mm
11:21 12.1 °C -1.8 °C 1024.6 hPa NNW 3.7 km/h 3.7 km/h 38 % 0 mm
11:26 12.3 °C -1.3 °C 1024.6 hPa SW 5.6 km/h 5.6 km/h 39 % 0 mm
11:31 12.5 °C -1.1 °C 1024.6 hPa SSW 6.4 km/h 6.4 km/h 39 % 0 mm
11:36 12.7 °C -1.3 °C 1024.6 hPa SSE 5.6 km/h 5.6 km/h 38 % 0 mm
11:41 12.7 °C -1.3 °C 1024.6 hPa NNW 3.2 km/h 3.2 km/h 38 % 0 mm
11:46 12.6 °C -1.8 °C 1024.6 hPa WNW 5.6 km/h 5.6 km/h 37 % 0 mm
11:51 12.4 °C -1.9 °C 1024.3 hPa NW 3.7 km/h 3.7 km/h 37 % 0 mm
11:56 12.6 °C -1 °C 1024.3 hPa SE 1.9 km/h 1.9 km/h 39 % 0 mm
12:01 13.1 °C -0.9 °C 1024.3 hPa NNW 5.6 km/h 5.6 km/h 38 % 0 mm
12:06 13.3 °C -0.7 °C 1023.9 hPa South 5.6 km/h 5.6 km/h 38 % 0 mm
12:11 13.7 °C -1.2 °C 1023.9 hPa NW 1.9 km/h 1.9 km/h 36 % 0 mm
12:16 13.7 °C -1.6 °C 1023.9 hPa East 1.9 km/h   35 % 0 mm
12:21 13.5 °C -2.1 °C 1023.6 hPa NW 5.6 km/h 5.6 km/h 34 % 0 mm
12:26 13.3 °C -1.9 °C 1023.6 hPa South 3.7 km/h 3.7 km/h 35 % 0 mm
12:31 13.9 °C -1.7 °C 1023.6 hPa SSE 1.9 km/h 3.2 km/h 34 % 0 mm
12:36 14.2 °C -1.4 °C 1023.6 hPa SE 1.9 km/h 1.9 km/h 34 % 0 mm
12:41 14.3 °C -1.7 °C 1023.2 hPa WNW 1.9 km/h 1.9 km/h 33 % 0 mm
12:46 14.1 °C -1.2 °C 1023.2 hPa NW 7.4 km/h 7.4 km/h 35 % 0 mm
12:51 14 °C -1.2 °C 1023.2 hPa WNW 1.9 km/h 1.9 km/h 35 % 0 mm
12:56 14.1 °C -2 °C 1022.9 hPa North 5.6 km/h 5.6 km/h 33 % 0 mm
13:02 14 °C -1.6 °C 1022.9 hPa NNW 5.6 km/h 5.6 km/h 34 % 0 mm
13:07 13.7 °C -1.9 °C 1022.9 hPa NW 1.9 km/h 1.9 km/h 34 % 0 mm
13:12 13.9 °C -1.7 °C 1022.9 hPa NW 5.6 km/h 5.6 km/h 34 % 0 mm
13:17 14 °C -1.2 °C 1022.9 hPa NW 3.7 km/h 3.7 km/h 35 % 0 mm
13:22 14.1 °C -2.4 °C 1022.6 hPa NW 3.7 km/h 3.7 km/h 32 % 0 mm
13:27 14.2 °C -1.8 °C 1022.6 hPa WNW 3.7 km/h 3.7 km/h 33 % 0 mm
13:32 14.3 °C -2.6 °C 1022.6 hPa NW 3.7 km/h 3.7 km/h 31 % 0 mm
13:37 14.6 °C -1.5 °C 1022.6 hPa SE 3.7 km/h 3.7 km/h 33 % 0 mm
13:42 14.9 °C -1.7 °C 1022.6 hPa SSE 5.6 km/h 5.6 km/h 32 % 0 mm
13:47 14.8 °C -1.7 °C 1022.6 hPa NW 5.6 km/h 5.6 km/h 32 % 0 mm
13:52 14.4 °C -2.5 °C 1022.2 hPa NW 5.6 km/h 5.6 km/h 31 % 0 mm
13:57 14.7 °C -1.9 °C 1022.2 hPa NW 6.4 km/h 6.4 km/h 32 % 0 mm
14:02 14.7 °C -2.3 °C 1022.2 hPa NW 5.6 km/h 5.6 km/h 31 % 0 mm
14:07 14.6 °C -2.3 °C 1022.2 hPa WNW 3.2 km/h 3.2 km/h 31 % 0 mm
14:12 14.4 °C -2.5 °C 1022.2 hPa NW 5.6 km/h 5.6 km/h 31 % 0 mm
14:17 14.3 °C -2.2 °C 1022.2 hPa WNW 9.3 km/h 9.3 km/h 32 % 0 mm
14:22 14.4 °C -2.1 °C 1022.2 hPa WNW 3.7 km/h 3.7 km/h 32 % 0 mm
14:27 14.3 °C -2.2 °C 1022.2 hPa WNW 3.7 km/h 3.7 km/h 32 % 0 mm
14:32 14.3 °C -2.2 °C 1022.2 hPa East 1.9 km/h 1.9 km/h 32 % 0 mm
14:37 14.4 °C -1.3 °C 1022.2 hPa South 4.8 km/h 4.8 km/h 34 % 0 mm
14:42 14.7 °C -1.9 °C 1022.2 hPa WNW 4.8 km/h 4.8 km/h 32 % 0 mm
14:47 14.6 °C -1.9 °C 1022.2 hPa NW 5.6 km/h 5.6 km/h 32 % 0 mm
14:52 14.3 °C -2.2 °C 1022.2 hPa SE 5.6 km/h 5.6 km/h 32 % 0 mm
14:57 14.3 °C -1.8 °C 1021.9 hPa NE 1.9 km/h 1.9 km/h 33 % 0 mm
15:02 14.5 °C -1.2 °C 1021.9 hPa WNW 5.6 km/h 5.6 km/h 34 % 0 mm
15:07 14.4 °C -1.7 °C 1021.9 hPa NW 8 km/h 8 km/h 33 % 0 mm
15:12 14.1 °C -2 °C 1021.9 hPa NW 5.6 km/h 5.6 km/h 33 % 0 mm
15:17 13.7 °C -1.9 °C 1021.9 hPa NW 5.6 km/h 5.6 km/h 34 % 0 mm
15:22 13.4 °C -1.8 °C 1021.9 hPa NW 5.6 km/h 5.6 km/h 35 % 0 mm
15:27 13.6 °C -1.3 °C 1021.6 hPa NW 7.4 km/h 7.4 km/h 36 % 0 mm
15:32 13.6 °C -1.3 °C 1021.6 hPa NNW 7.4 km/h 7.4 km/h 36 % 0 mm
15:37 13.3 °C -1.5 °C 1021.6 hPa NW 6.4 km/h 6.4 km/h 36 % 0 mm
15:42 13.3 °C -1.1 °C 1021.6 hPa NW 5.6 km/h 5.6 km/h 37 % 0 mm
15:47 13.1 °C -0.9 °C 1021.6 hPa NNW 5.6 km/h 5.6 km/h 38 % 0 mm
15:52 12.8 °C -1.6 °C 1021.6 hPa WNW 5.6 km/h 5.6 km/h 37 % 0 mm
15:57 12.6 °C -1.1 °C 1021.6 hPa NW 5.6 km/h 5.6 km/h 39 % 0 mm
16:02 12.4 °C -0.8 °C 1021.6 hPa WNW 3.7 km/h 3.7 km/h 40 % 0 mm
16:07 12.7 °C -0.3 °C 1021.6 hPa NW 5.6 km/h 5.6 km/h 41 % 0 mm
16:12 12.9 °C -0.7 °C 1021.6 hPa NW 8 km/h 8 km/h 39 % 0 mm
16:17 12.9 °C -0.7 °C 1021.6 hPa NW 7.4 km/h 7.4 km/h 39 % 0 mm
16:22 12.7 °C -0.6 °C 1021.6 hPa NW 3.7 km/h 3.7 km/h 40 % 0 mm
16:27 12.6 °C -0.7 °C 1021.6 hPa NW 5.6 km/h 5.6 km/h 40 % 0 mm
16:32 12.7 °C -0.9 °C 1021.6 hPa North 11.1 km/h 11.1 km/h 39 % 0 mm
16:37 12.8 °C -0.8 °C 1021.2 hPa NW 3.7 km/h 3.7 km/h 39 % 0 mm
16:42 12.8 °C -0.5 °C 1021.2 hPa NW 3.7 km/h 3.7 km/h 40 % 0 mm
16:47 12.7 °C -0.6 °C 1021.2 hPa NW 5.6 km/h 5.6 km/h 40 % 0 mm
16:52 12.7 °C 0.1 °C 1021.2 hPa NW 3.7 km/h 3.7 km/h 42 % 0 mm
16:57 12.6 °C -0.7 °C 1021.2 hPa WNW 3.7 km/h 3.7 km/h 40 % 0 mm
17:02 12.5 °C -1.1 °C 1021.2 hPa Calm     39 % 0 mm
17:07 12.4 °C -1.2 °C 1021.2 hPa Calm     39 % 0 mm
17:12 12.2 °C -0.7 °C 1021.2 hPa Calm     41 % 0 mm
17:17 12 °C -0.9 °C 1021.2 hPa WNW 1.9 km/h   41 % 0 mm
17:22 11.9 °C -1.3 °C 1020.9 hPa North 1.9 km/h 1.9 km/h 40 % 0 mm
17:27 11.8 °C -1.3 °C 1020.9 hPa Calm     40 % 0 mm
17:32 11.7 °C -1.4 °C 1020.9 hPa NW 1.9 km/h   40 % 0 mm
17:37 11.4 °C -1.4 °C 1020.9 hPa Calm     41 % 0 mm
17:42 11.2 °C -1.6 °C 1020.9 hPa Calm     41 % 0 mm
17:47 10.9 °C -1.8 °C 1020.9 hPa Calm     41 % 0 mm
17:52 10.9 °C -2.2 °C 1020.9 hPa Calm     40 % 0 mm
17:57 10.7 °C -1.1 °C 1020.9 hPa Calm     44 % 0 mm
18:02 10.3 °C -1.4 °C 1020.9 hPa Calm     44 % 0 mm
18:07 10 °C -1.1 °C 1020.5 hPa Calm     46 % 0 mm
18:12 9.7 °C -0.8 °C 1020.5 hPa Calm     48 % 0 mm
18:17 9.6 °C 0.2 °C 1020.9 hPa Calm     52 % 0 mm
18:22 9.5 °C -0.2 °C 1020.5 hPa Calm     51 % 0 mm
18:27 9.6 °C 0.2 °C 1020.9 hPa Calm     52 % 0 mm
18:32 9.5 °C 0.4 °C 1020.9 hPa Calm     53 % 0 mm
18:37 9.4 °C 0 °C 1020.9 hPa Calm     52 % 0 mm
18:42 9.4 °C 1.6 °C 1020.9 hPa Calm     58 % 0 mm
18:47 9.3 °C 0.7 °C 1020.9 hPa Calm     55 % 0 mm
18:52 9.2 °C 1.1 °C 1020.9 hPa Calm     57 % 0 mm
18:57 9.2 °C 1.4 °C 1021.2 hPa Calm     58 % 0 mm
19:02 9.1 °C 2 °C 1021.2 hPa Calm     61 % 0 mm
19:07 9.1 °C 0.6 °C 1021.2 hPa WNW 1.9 km/h 1.9 km/h 55 % 0 mm
19:12 9.4 °C -0.2 °C 1021.6 hPa South 4.8 km/h 4.8 km/h 51 % 0 mm
19:17 9.8 °C -0.7 °C 1021.6 hPa NW 5.6 km/h 5.6 km/h 48 % 0 mm
19:22 10.1 °C -0.8 °C 1021.6 hPa NW 9.7 km/h 9.7 km/h 47 % 0 mm
19:27 10.1 °C 0.4 °C 1021.6 hPa NW 9.7 km/h 9.7 km/h 51 % 0 mm
19:32 10 °C 0.8 °C 1021.9 hPa WNW 11.1 km/h 11.1 km/h 53 % 0 mm
19:37 9.8 °C 1.2 °C 1021.9 hPa WNW 7.4 km/h 7.4 km/h 55 % 0 mm
19:43 9.7 °C 0.8 °C 1021.9 hPa NW 7.4 km/h 7.4 km/h 54 % 0 mm
19:48 9.7 °C 1.1 °C 1022.2 hPa NW 14.8 km/h 14.8 km/h 55 % 0 mm
19:53 9.6 °C 1.7 °C 1022.6 hPa WNW 5.6 km/h 5.6 km/h 58 % 0 mm
19:58 9.1 °C 2.8 °C 1022.6 hPa NW 13 km/h 13 km/h 65 % 0 mm
20:03 8.1 °C 3.6 °C 1022.9 hPa NNW 5.6 km/h 5.6 km/h 73 % 0 mm
20:08 7.5 °C 3.7 °C 1022.6 hPa NW 5.6 km/h 5.6 km/h 77 % 0 mm
20:13 7.3 °C 3.7 °C 1022.6 hPa NNW 3.7 km/h 3.7 km/h 78 % 0 mm
20:18 7.2 °C 3.8 °C 1022.6 hPa NNW 1.9 km/h 1.9 km/h 79 % 0 mm
20:23 7.3 °C 3.7 °C 1022.6 hPa Calm     78 % 0 mm
20:28 7.3 °C 3.9 °C 1022.6 hPa Calm     79 % 0 mm
20:33 7.3 °C 3.9 °C 1022.6 hPa Calm     79 % 0 mm
20:38 7.2 °C 3.8 °C 1022.6 hPa WNW 1.9 km/h 1.9 km/h 79 % 0 mm
20:43 7.3 °C 4.1 °C 1022.6 hPa Calm     80 % 0 mm
20:48 7.3 °C 4.2 °C 1022.6 hPa Calm     81 % 0.25 mm
20:53 7.2 °C 4.3 °C 1022.6 hPa Calm     82 % 0.25 mm
20:58 7.2 °C 4.4 °C 1022.6 hPa Calm     83 % 0.25 mm
21:03 7.1 °C 4.4 °C 1022.6 hPa Calm     83 % 0.25 mm
21:08 6.9 °C 4.2 °C 1022.6 hPa NE 1.9 km/h 1.9 km/h 83 % 0.25 mm
21:13 6.8 °C 4.3 °C 1022.6 hPa NE 3.7 km/h 3.7 km/h 84 % 0.25 mm
21:18 6.7 °C 4.1 °C 1022.6 hPa Calm     83 % 0.25 mm
21:23 6.7 °C 4 °C 1022.6 hPa Calm     83 % 0.25 mm
21:28 6.6 °C 3.9 °C 1022.6 hPa Calm     83 % 0.25 mm
21:33 6.5 °C 4.2 °C 1022.6 hPa Calm     85 % 0.25 mm
21:38 6.4 °C 4.1 °C 1022.6 hPa Calm     85 % 0.25 mm
21:43 6.4 °C 4.1 °C 1022.6 hPa Calm     85 % 0.25 mm
21:48 6.3 °C 3.9 °C 1022.6 hPa Calm     85 % 0 mm
21:53 6.4 °C 4.1 °C 1022.6 hPa NW 3.7 km/h 3.7 km/h 85 % 0 mm
21:58 6.5 °C 4.2 °C 1022.6 hPa NW 1.9 km/h 1.9 km/h 85 % 0 mm
22:03 6.6 °C 4.1 °C 1022.6 hPa NW 1.9 km/h 1.9 km/h 84 % 0 mm
22:08 6.6 °C 4.1 °C 1022.6 hPa WNW 1.9 km/h 1.9 km/h 84 % 0 mm
22:13 6.6 °C 4.3 °C 1022.9 hPa WNW 1.9 km/h 1.9 km/h 85 % 0 mm
22:18 6.6 °C 4.4 °C 1022.9 hPa NW 1.9 km/h 1.9 km/h 86 % 0 mm
22:23 6.6 °C 4.4 °C 1022.9 hPa Calm     86 % 0.25 mm
22:28 6.5 °C 4.5 °C 1022.6 hPa Calm     87 % 0.25 mm
22:33 6.4 °C 4.3 °C 1022.6 hPa North 1.9 km/h   86 % 0.25 mm
22:38 6.4 °C 4.4 °C 1022.6 hPa Calm     87 % 0.25 mm
22:43 6.2 °C 4.2 °C 1022.6 hPa Calm     87 % 0.25 mm
22:48 6.1 °C 4.1 °C 1022.6 hPa Calm     87 % 0.25 mm
22:53 6 °C 4.2 °C 1022.6 hPa Calm     88 % 0.25 mm
22:58 5.9 °C 4.3 °C 1022.6 hPa Calm     89 % 0.25 mm
23:03 6 °C 4.3 °C 1022.6 hPa Calm     89 % 0.25 mm
23:08 6.1 °C 4.2 °C 1022.6 hPa Calm     88 % 0.25 mm
23:13 6.2 °C 4.4 °C 1022.6 hPa Calm     88 % 0.25 mm
23:18 6.3 °C 4.3 °C 1022.6 hPa Calm     87 % 0.25 mm
23:23 6.4 °C 4.4 °C 1022.6 hPa North 1.9 km/h 1.9 km/h 87 % 0 mm
23:28 6.6 °C 4.4 °C 1022.9 hPa NW 1.9 km/h 1.9 km/h 86 % 0 mm
23:33 6.6 °C 4.3 °C 1022.9 hPa NNW 3.7 km/h 3.7 km/h 85 % 0 mm
23:38 6.6 °C 4.1 °C 1022.9 hPa NW 1.9 km/h 1.9 km/h 84 % 0 mm
23:43 6.6 °C 3.9 °C 1022.9 hPa NW 3.7 km/h 3.7 km/h 83 % 0 mm
23:48 6.6 °C 3.9 °C 1022.9 hPa NW 5.6 km/h 5.6 km/h 83 % 0 mm
23:53 6.4 °C 3.9 °C 1023.2 hPa NW 4.8 km/h 4.8 km/h 84 % 0 mm
23:58 6.2 °C 3.8 °C 1022.9 hPa WNW 5.6 km/h 5.6 km/h 85 % 0 mm
Park Place, Exeter, Tulare County, California, USA
Compliments of Weather Underground - 2.75 mb